Hayward, WI

11:38 AM CST on November 18, 2017 (GMT -0600)
Sawyer County

Weather History for KHYR - February, 2012

Change the Weather History Date:

Friday, February 17, 2012

  Actual Average Record
Temperature  
Mean Temperature 24 °F -  
Max Temperature 32 °F 26 °F 55 °F (2017)
Min Temperature 17 °F -1 °F -20 °F (2001)
Degree Days  
Heating Degree Days 40    
Moisture  
Dew Point 21 °F    
Average Humidity 81    
Maximum Humidity 93    
Minimum Humidity 69    
Precipitation  
Precipitation 0.02 in - - ()
Sea Level Pressure  
Sea Level Pressure 30.03 in    
Wind  
Wind Speed 1 mph (ENE)    
Max Wind Speed 6 mph    
Max Gust Speed -    
Visibility 8 miles    
Events Snow    
Averages and records for this station are not official NWS values.
T = Trace of Precipitation, MM = Missing Value Source: NWS Daily Summary

Daily Weather History Graph

Daily Weather History Graph

Search for Another Location

Airport or City:

Trip Planner

Search our weather history database for the weather conditions in past years. The results will help you decide how hot, cold, wet, or windy it might be!

Date:

Astronomy

Feb. 17, 2012 Rise Set
Actual Time 7:06 AM CST 5:34 PM CST
Civil Twilight 6:35 AM CST 6:04 PM CST
Nautical Twilight 6:00 AM CST 6:39 PM CST
Astronomical Twilight 5:25 AM CST 7:14 PM CST
Moon 4:08 AM CST (2/17) 1:17 PM CST (2/17)
Length of Visible Light 11h 29m
Length of Day
10h 28m
Waning Crescent, 19% of the Moon is Illuminated
Feb 17
Waning Crescent
Feb 21
New
Feb 29
First Quarter
Mar 8
Full
Mar 14
Last Quarter

Hourly Weather History & Observations

Time (CST) Temp. Windchill Dew Point Humidity Pressure Visibility Wind Dir Wind Speed Gust Speed Precip Events Conditions
12:53 AM 19.9 °F - 16.0 °F 85% 30.05 in 10.0 mi Calm Calm - N/A   Clear
1:53 AM 19.0 °F - 14.0 °F 81% 30.04 in 10.0 mi Calm Calm - N/A   Mostly Cloudy
2:53 AM 17.1 °F - 14.0 °F 88% 30.03 in 10.0 mi Calm Calm - N/A   Mostly Cloudy
4:53 AM 18.0 °F - 14.0 °F 84% 30.03 in 10.0 mi Calm Calm - N/A   Overcast
5:53 AM 23.0 °F - 18.0 °F 81% 30.01 in 4.0 mi Calm Calm - 0.00 in Snow Light Snow
6:01 AM 23.0 °F - 19.4 °F 86% 29.96 in 2.5 mi Calm Calm - 0.00 in Snow Light Snow
6:17 AM 24.8 °F - 19.4 °F 80% 29.96 in 1.2 mi Calm Calm - 0.00 in Snow Light Snow
6:33 AM 24.8 °F - 21.2 °F 86% 29.96 in 2.0 mi Calm Calm - 0.02 in Snow Light Snow
6:38 AM 24.8 °F - 21.2 °F 86% 29.96 in 5.0 mi Calm Calm - 0.02 in Snow Light Snow
6:53 AM 25.0 °F - 21.0 °F 85% 30.02 in 10.0 mi Calm Calm - 0.02 in   Overcast
7:53 AM 25.0 °F - 21.9 °F 88% 30.03 in 10.0 mi Calm Calm - N/A   Overcast
8:43 AM 26.6 °F - 24.8 °F 93% 29.97 in 10.0 mi Calm Calm - N/A   Overcast
8:53 AM 27.0 °F - 24.1 °F 89% 30.02 in 10.0 mi Calm Calm - N/A   Overcast
9:09 AM 28.4 °F 24.6 °F 24.8 °F 86% 29.96 in 6.0 mi South 3.5 mph - 0.00 in Snow Light Snow
9:30 AM 28.4 °F - 24.8 °F 86% 29.96 in 10.0 mi Calm Calm - 0.00 in   Overcast
9:53 AM 28.9 °F - 24.1 °F 82% 30.02 in 10.0 mi Calm Calm - 0.00 in   Overcast
10:06 AM 28.4 °F 24.6 °F 23.0 °F 80% 29.97 in 10.0 mi East 3.5 mph - N/A   Overcast
10:53 AM 28.9 °F 25.2 °F 23.0 °F 78% 30.03 in 7.0 mi East 3.5 mph - 0.00 in Snow Light Snow
11:53 AM 30.0 °F - 24.1 °F 79% 30.02 in 10.0 mi Calm Calm - 0.00 in   Overcast
12:53 PM 30.9 °F - 25.0 °F 79% 30.01 in 10.0 mi Calm Calm - N/A   Overcast
1:53 PM 32.0 °F - 25.0 °F 75% 30.02 in 10.0 mi Calm Calm - N/A   Overcast
3:53 PM 30.0 °F 24.1 °F 23.0 °F 75% 30.06 in 8.0 mi NNE 5.8 mph - 0.00 in Snow Light Snow
4:06 PM 30.2 °F 26.7 °F 23.0 °F 75% 29.99 in 6.0 mi Variable 3.5 mph - 0.00 in Snow Light Snow
4:53 PM 30.0 °F - 23.0 °F 75% 30.07 in 9.0 mi Calm Calm - 0.00 in   Overcast
5:28 PM 28.4 °F 24.6 °F 21.2 °F 74% 30.01 in 10.0 mi Variable 3.5 mph - N/A   Overcast
5:53 PM 28.9 °F - 19.9 °F 69% 30.08 in 10.0 mi Calm Calm - N/A   Overcast
6:53 PM 28.9 °F - 21.0 °F 72% 30.09 in 8.0 mi Calm Calm - 0.00 in Snow Light Snow
7:06 PM 28.4 °F - 21.2 °F 74% 30.04 in 4.0 mi Calm Calm - 0.00 in Snow Light Snow
7:28 PM 28.4 °F - 21.2 °F 74% 30.04 in 7.0 mi Calm Calm - 0.00 in Snow Light Snow
7:53 PM 28.0 °F - 21.9 °F 78% 30.10 in 10.0 mi Calm Calm - 0.00 in   Overcast
8:53 PM 27.0 °F - 21.9 °F 81% 30.11 in 10.0 mi Calm Calm - N/A   Overcast
9:06 PM 26.6 °F - 23.0 °F 86% 30.06 in 2.5 mi Calm Calm - 0.00 in Snow Light Snow
9:17 PM 26.6 °F 22.6 °F 23.0 °F 86% 30.06 in 2.0 mi Variable 3.5 mph - 0.00 in Snow Light Snow
9:23 PM 26.6 °F 21.2 °F 23.0 °F 86% 30.06 in 3.0 mi NW 4.6 mph - 0.00 in Snow Light Snow
9:36 PM 26.6 °F 22.6 °F 21.2 °F 80% 30.06 in 8.0 mi Variable 3.5 mph - 0.00 in Snow Light Snow
9:53 PM 27.0 °F - 21.0 °F 78% 30.12 in 10.0 mi Calm Calm - 0.00 in   Overcast
10:53 PM 25.0 °F - 21.0 °F 85% 30.12 in 10.0 mi Calm Calm - N/A   Overcast
11:53 PM 26.1 °F - 19.0 °F 75% 30.13 in 10.0 mi Calm Calm - N/A   Overcast